{"data":{"norad_id":59247,"epoch":"2026-05-25T04:12:09.624096Z","epoch_age_seconds":55865,"freshness":"FRESH","line1":"1 59247U 24049S   26145.17511139  .00000844  00000+0  40184-4 0  9998","line2":"2 59247  43.0044  68.1112 0000943 271.3240  88.7504 15.27581218124131","mean_motion":15.27581218,"eccentricity":9.43e-5,"inclination_deg":43.0044,"raan_deg":68.1112,"arg_perigee_deg":271.324,"mean_anomaly_deg":88.7504,"bstar":4.0184e-5,"rev_number":12413,"period_min":94.266673551101,"perigee_km":482.39843940697,"apogee_km":483.69245841683,"semimajor_km":6861.1824489119,"source":"CELESTRAK","updated_at":"2026-05-25T13:38:18.872473Z"}}